x

9440910 - Toke Point, Wa (tokw1) Weather Station

9:54pm - Tue 26th Jul 2016 All times are PDT. -7 hours from GMT.

  • Wind
    14mph, 18mph gusts
  • Sea Temp 62°f
  • 空気 Temp 57°f
  • Sea Pressure 1022mb
  • 9440910 - Toke Point, Wa
  • 9440910 - Toke Point, Wa

More Historic Weather Station data

Upgrade to MSW Pro to gain access to the past 30 days of data for over 8000 Wavebouys and Weather Stations around the globe.

Join Pro

Comparision Forecast

View Surf forecast
   
Tue 07/26 9:54pm 14 18 mph 1022mb 62f 57f
9:48pm 10 18 mph 1021.9mb 62f 58f
9:42pm 11 15 mph 1022mb 62f 58f
9:36pm 13 17 mph 1022mb 62f 58f
9:30pm 9 14 mph 1022mb 62f 58f
9:24pm 11 15 mph 1021.9mb 62f 58f
9:18pm 10 14 mph 1021.8mb 62f 58f
9:12pm 14 17 mph 1021.9mb 62f 58f
9:06pm 15 17 mph 1021.9mb 61f 58f
9:00pm 11 18 mph 1021.9mb 62f 58f
8:54pm 10 18 mph 1021.8mb 62f 58f
8:48pm 13 17 mph 1021.8mb 62f 58f
8:42pm 9 17 mph 1021.8mb 62f 58f
8:36pm 11 16 mph 1021.8mb 62f 58f
8:30pm 9 15 mph 1021.8mb 61f 58f
8:24pm 13 15 mph 1021.7mb 60f 58f
8:18pm 13 21 mph 1021.7mb 60f -
8:12pm 14 17 mph 1021.8mb 59f -
8:06pm 11 14 mph 1021.8mb 58f -
8:00pm 13 18 mph - 58f -
7:54pm 13 17 mph - 58f -
7:48pm 10 17 mph 1021.7mb 58f -
7:42pm 13 17 mph 1021.6mb 56f -
7:36pm 15 20 mph 1021.6mb 56f -
7:30pm 13 21 mph - 56f 58f
7:24pm 10 15 mph - 55f 58f
7:18pm 10 17 mph 1021.7mb 55f 59f
7:12pm 14 17 mph 1021.7mb 55f 59f
7:06pm 14 17 mph 1021.7mb 55f 59f
7:00pm  -  mph - 55f 59f
6:54pm  -  mph - 55f 59f
6:48pm 13 17 mph - - -
6:42pm 15 22 mph - - -
6:36pm 13 21 mph - - -
6:30pm 10 17 mph - 57f -
6:24pm 11 16 mph - 58f -
6:18pm 11 14 mph - 58f 60f
6:12pm 10 17 mph - 59f 60f
6:06pm 14 18 mph - 59f 60f
6:00pm  -  mph - 59f 60f
5:54pm  -  mph - 59f 60f
5:48pm 15 18 mph 1022mb - -
5:42pm 13 18 mph 1022.1mb - -
5:36pm 15 18 mph 1022mb - -
5:30pm 15 20 mph - 60f 61f
5:24pm 14 20 mph - 60f 61f
5:18pm  -  mph - 61f 61f
5:12pm  -  mph - 61f 61f
5:06pm  -  mph - 62f 61f
5:00pm  -  mph - 62f -
4:54pm  -  mph - 62f -
4:48pm  -  mph - 62f -
4:42pm  -  mph - 63f -
4:36pm  -  mph - 62f -
4:30pm 15 20 mph - 63f 61f
4:24pm 15 18 mph - 62f 62f
4:18pm 14 21 mph 1022.3mb 63f -
4:12pm 15 22 mph 1022.3mb 64f -
4:06pm 17 24 mph 1022.4mb 64f -
4:00pm  -  mph 1022.3mb 64f -
3:54pm  -  mph 1022.4mb 64f -
3:48pm  -  mph 1022.4mb 64f -
3:42pm  -  mph 1022.5mb 63f -
3:36pm  -  mph 1022.6mb 65f -
3:30pm 14 23 mph 1022.6mb 65f 62f
3:24pm 14 22 mph 1022.5mb 64f 62f
3:18pm 15 20 mph 1022.6mb 64f -
3:12pm 15 20 mph 1022.7mb 65f -
3:06pm 13 17 mph 1022.6mb 65f -
3:00pm  -  mph - 65f 62f
2:54pm  -  mph - 65f 62f
2:48pm 13 20 mph - - -
2:42pm 15 23 mph - 65f -
2:36pm 16 21 mph - 64f -
2:30pm 18 23 mph 1022.6mb 65f 62f
2:24pm 20 23 mph 1022.6mb 65f 62f
2:18pm 15 21 mph 1022.6mb 65f 63f
2:12pm 14 17 mph 1022.8mb 66f 63f
2:06pm 15 18 mph 1022.7mb 65f 63f
2:00pm 14 18 mph 1022.7mb 65f 63f
1:54pm 13 16 mph 1022.8mb 65f 63f
1:48pm 11 15 mph 1022.8mb 65f 63f
1:42pm 13 21 mph 1022.8mb 65f 62f
1:36pm 13 17 mph 1022.7mb 66f 62f
1:30pm 14 22 mph 1022.7mb 66f 62f
1:24pm 14 16 mph 1022.7mb 66f 62f
1:18pm 15 20 mph 1022.8mb 66f 62f
1:12pm 15 18 mph 1022.8mb 66f 62f
1:06pm 15 21 mph 1022.8mb 66f 62f
1:00pm 16 20 mph 1022.8mb 66f 62f
12:54pm 16 22 mph 1022.9mb 66f 62f
12:48pm 20 22 mph 1022.8mb 66f 61f
12:42pm 20 22 mph 1022.9mb 66f 62f
12:36pm 17 23 mph 1022.8mb 66f 62f
12:30pm 15 17 mph 1022.9mb 66f 62f
12:24pm 14 16 mph 1023mb 65f 62f
12:18pm 13 18 mph 1022.9mb 65f 62f
12:12pm 10 18 mph 1022.9mb 65f 62f
12:06pm 15 17 mph 1022.9mb 65f 62f
12:00pm 15 16 mph 1022.9mb 65f 61f
11:54am 11 16 mph 1022.9mb 65f 62f
11:48am 13 17 mph 1023mb 65f 62f
11:42am 11 18 mph 1023mb 65f 62f
11:36am 13 18 mph 1023mb 64f 61f
11:30am 13 20 mph 1023.1mb 64f 61f
11:24am 15 18 mph 1023.1mb 64f 61f
11:18am 17 22 mph 1023mb 64f 61f
11:12am 17 21 mph 1023mb 64f 61f
11:06am 18 22 mph 1023mb 64f 61f
11:00am 10 15 mph 1023mb 64f 62f
10:54am 11 14 mph 1023mb 64f 62f
10:48am 10 14 mph 1022.9mb 64f 61f
10:42am 13 14 mph 1022.9mb 64f 61f
10:36am 13 16 mph 1022.9mb 64f 61f
10:30am 13 16 mph 1022.9mb 64f 61f
10:24am 11 14 mph 1022.9mb 64f 61f
10:18am 14 17 mph 1022.9mb 64f 61f
10:12am 13 17 mph 1022.8mb 64f 61f
10:06am 14 17 mph 1022.9mb 63f 61f
10:00am 15 20 mph 1023mb 63f 61f
9:54am 10 17 mph 1022.9mb 63f 60f
9:48am 13 17 mph 1023mb 63f 60f
9:42am 13 20 mph 1023mb 63f 60f
9:36am 15 20 mph 1023.1mb 63f 60f
9:30am 16 22 mph 1023.1mb 63f 60f
9:24am 15 18 mph 1023mb 63f 60f
9:18am 14 22 mph 1023mb 63f 60f
9:12am 13 15 mph 1023mb 63f 60f
9:06am 16 21 mph 1023mb 62f 60f
9:00am 10 18 mph 1023mb 62f 60f
8:54am 15 20 mph 1022.8mb 63f 60f
8:48am 9 14 mph 1022.9mb 63f 60f
8:42am 11 21 mph 1022.8mb 63f 60f
8:36am 17 20 mph 1022.8mb 63f 60f
8:30am 9 13 mph 1022.8mb 63f 60f
8:24am 9 13 mph 1022.9mb 62f 60f
8:18am 11 18 mph 1022.8mb 62f 60f
8:12am 11 16 mph 1022.8mb 63f 60f
8:06am 9 14 mph 1022.8mb 62f 60f
8:00am 8 14 mph 1022.7mb 62f 60f
7:54am 7 10 mph 1022.7mb 62f 59f
7:48am 10 13 mph 1022.7mb 62f 60f
7:42am 9 15 mph 1022.7mb 62f 60f
7:36am 14 20 mph 1022.7mb 61f 59f
7:30am 13 16 mph 1022.6mb 60f 59f
7:24am 8 13 mph 1022.6mb 61f 60f
7:18am 11 16 mph 1022.5mb 61f 59f
7:12am 8 9 mph 1022.5mb 60f 60f
7:06am 6 10 mph 1022.3mb 59f 60f
7:00am 10 16 mph 1022.3mb 59f 60f
6:54am 13 15 mph 1022.3mb 59f 60f
6:48am 11 14 mph 1022.2mb 59f 60f
6:42am 11 14 mph 1022.1mb 58f 59f
6:36am 11 14 mph 1022.1mb 58f 60f
6:30am 9 15 mph 1022.1mb 58f 60f
6:24am 10 13 mph 1022.1mb 58f 59f
6:18am 9 13 mph 1022mb 58f 59f
6:12am 11 16 mph 1022.1mb 58f 59f
6:06am 11 17 mph 1022.1mb 58f 59f
6:00am 9 11 mph 1022.1mb 59f 59f
5:54am 8 15 mph 1022mb 59f 59f
5:48am 11 16 mph 1022mb 59f 59f
5:42am 13 16 mph 1021.9mb 60f 59f
5:36am 9 15 mph 1021.9mb 60f 60f
5:30am 13 16 mph 1021.9mb 61f 59f
5:24am 9 10 mph 1021.9mb 62f 60f
5:18am 7 13 mph 1021.8mb 62f 60f
5:12am 8 11 mph 1021.6mb 63f 60f
5:06am 8 13 mph 1021.6mb 63f 60f
5:00am 8 11 mph 1021.7mb 62f 60f
4:54am 6 8 mph 1021.8mb 64f 60f
4:48am 9 13 mph 1021.7mb 64f 60f
4:42am 6 14 mph 1021.7mb 63f 60f
4:36am 8 11 mph 1021.7mb 64f 60f
4:30am 8 13 mph 1021.7mb 64f 60f
4:24am 8 9 mph 1021.7mb 64f 60f
4:18am 7 11 mph 1021.8mb 64f 60f
4:12am 9 11 mph 1021.7mb 64f 60f
4:06am 8 11 mph 1021.7mb 64f 60f
4:00am 8 10 mph 1021.6mb 64f 60f
3:54am 9 14 mph 1021.6mb 64f 60f
3:48am 11 14 mph 1021.6mb 65f 60f
3:42am 10 15 mph 1021.5mb 65f 60f
3:36am 8 10 mph 1021.5mb 65f 60f
3:30am 9 11 mph 1021.6mb 65f 60f
3:24am 8 16 mph 1021.5mb 65f 60f
3:18am 10 14 mph 1021.5mb 66f 59f
3:12am 11 15 mph 1021.5mb 65f 59f
3:06am 9 14 mph 1021.5mb 65f 60f
3:00am 13 18 mph 1021.5mb 65f 59f
2:54am 14 17 mph 1021.5mb 65f 59f
2:48am 13 16 mph 1021.5mb 65f 59f
2:42am 8 10 mph 1021.4mb 65f 60f
2:36am 7 9 mph 1021.4mb 66f 59f
2:30am 7 10 mph 1021.4mb 66f 59f
2:24am 9 10 mph 1021.3mb 66f 59f
2:18am 9 11 mph 1021.3mb 66f 59f
2:12am 9 11 mph 1021.4mb 66f 59f
2:06am 7 11 mph 1021.4mb 66f 59f
2:00am 8 11 mph 1021.4mb 66f 59f
1:54am 9 14 mph 1021.4mb 66f 59f
1:48am 9 10 mph 1021.5mb 66f 59f
1:42am 8 10 mph 1021.4mb 67f 59f
1:36am 8 9 mph 1021.4mb 67f 59f
1:30am 8 14 mph 1021.5mb 67f 59f
1:24am 9 15 mph 1021.5mb 67f 59f
1:18am 13 15 mph 1021.4mb 67f 59f
1:12am 8 11 mph 1021.5mb 67f 59f
1:06am 6 10 mph 1021.4mb 67f 59f
1:00am 8 10 mph 1021.4mb 67f 59f
12:54am 9 11 mph 1021.4mb 67f 59f
12:48am 9 13 mph 1021.4mb 67f 59f
12:42am 7 11 mph 1021.4mb 67f 59f
12:36am 8 11 mph 1021.4mb 67f 59f
12:30am 11 14 mph 1021.3mb 67f 59f
12:24am 9 13 mph 1021.4mb 67f 59f
12:18am 7 13 mph 1021.3mb 66f 59f
12:12am 8 13 mph 1021.4mb 66f 59f
12:06am 10 14 mph 1021.4mb 66f 59f
12:00am 10 16 mph 1021.4mb 66f 59f
Mon 07/25 11:54pm 11 15 mph 1021.3mb 66f 59f
11:48pm 9 11 mph 1021.3mb 66f 59f
11:42pm 10 13 mph 1021.3mb 66f 59f
11:36pm 14 17 mph 1021.3mb 66f 59f
11:30pm 8 11 mph 1021.3mb 66f 59f
11:24pm 7 13 mph 1021.4mb 66f 59f
11:18pm 10 13 mph 1021.4mb 66f 59f
11:12pm 11 15 mph 1021.4mb 66f 59f
11:06pm 9 13 mph 1021.5mb 66f 59f
11:00pm 9 13 mph 1021.4mb 66f 59f
10:54pm 9 14 mph 1021.4mb 66f 59f
10:48pm 13 17 mph 1021.5mb 66f -
10:42pm 8 10 mph 1021.5mb 66f -
10:36pm 9 11 mph 1021.5mb 66f -
10:30pm 10 11 mph 1021.5mb 66f 59f
10:24pm 7 13 mph 1021.5mb 66f 59f
10:18pm 9 13 mph 1021.6mb 65f 59f
10:12pm 11 15 mph 1021.6mb 65f 59f
10:06pm 10 15 mph 1021.6mb 65f 59f
10:00pm 11 14 mph 1021.4mb 65f 59f
9:54pm 13 16 mph 1021.4mb 65f 59f
9:48pm 10 14 mph 1021.5mb 65f 59f
9:42pm 11 16 mph 1021.4mb 65f 59f
9:36pm 10 13 mph 1021.3mb 65f 59f
9:30pm 10 13 mph 1021.2mb 65f 59f
9:24pm 13 16 mph 1021.2mb 64f 59f
9:18pm 14 18 mph 1021.1mb 64f 59f
9:12pm 14 17 mph 1021mb 64f 59f
9:06pm 10 13 mph 1020.9mb 64f 59f
9:00pm 10 14 mph 1020.9mb 64f 60f
8:54pm 13 15 mph 1020.9mb 64f 60f
8:48pm 11 15 mph 1020.9mb 64f 60f
8:42pm 7 13 mph 1020.8mb 64f 60f
8:36pm 9 15 mph 1020.8mb 64f 60f
8:30pm 9 14 mph 1020.9mb 64f 60f
8:24pm 11 14 mph 1020.9mb 64f 60f
8:18pm 10 13 mph 1020.8mb 64f 60f
8:12pm 13 18 mph 1020.7mb 64f 60f
8:06pm 15 18 mph 1020.7mb 64f 60f
8:00pm 10 14 mph - 64f 60f
7:54pm 13 15 mph - 65f 60f
7:48pm 10 15 mph 1020.7mb - -
7:42pm 11 15 mph 1020.7mb - -
7:36pm 10 17 mph 1020.6mb - -
7:30pm 14 17 mph - 63f 60f
7:24pm 10 14 mph - 64f 60f
7:18pm 7 15 mph - 61f 60f
7:12pm 13 16 mph - 60f 60f
7:06pm 8 13 mph - 61f 60f
7:00pm 10 17 mph - 61f 60f
6:54pm 10 14 mph - 60f 60f
6:48pm 10 15 mph 1020.5mb 59f -
6:42pm 11 17 mph 1020.4mb 58f -
6:36pm 16 21 mph 1020.5mb 59f -
6:30pm 16 20 mph - 58f -
6:24pm 9 14 mph - 58f -
6:18pm 13 17 mph - 58f 61f
6:12pm 13 20 mph - 58f 61f
6:06pm 14 20 mph - 58f 61f
6:00pm 16 21 mph - 58f 61f
5:54pm 17 20 mph - 58f 61f
5:48pm 13 16 mph - - -
5:42pm 15 18 mph - - -
5:36pm 14 18 mph - - -
5:30pm 13 17 mph - 61f 62f
5:24pm 10 16 mph - 61f 62f
5:18pm 11 16 mph - 62f -
5:12pm 15 17 mph - 62f -
5:06pm 14 16 mph - 62f -
5:00pm  -  mph - 62f 62f
4:54pm  -  mph - 62f 62f
4:48pm 15 17 mph 1020.5mb - -
4:42pm 13 16 mph 1020.5mb - -
4:36pm 14 16 mph 1020.5mb - -
4:30pm  -  mph - 64f -
4:24pm  -  mph - 65f -
4:18pm 13 16 mph 1020.6mb 64f -
4:12pm 14 20 mph 1020.6mb 65f -
4:06pm 13 20 mph 1020.6mb 66f -
4:00pm  -  mph - 65f 62f
3:54pm  -  mph - 65f 62f
3:48pm 15 17 mph 1020.6mb 65f -
3:42pm 14 16 mph 1020.6mb 65f -
3:36pm 15 18 mph 1020.6mb 66f -
3:30pm 11 18 mph 1020.5mb 66f -
3:24pm 15 17 mph 1020.6mb 66f -
3:18pm 13 16 mph - 66f 62f
3:12pm 13 17 mph - 66f 62f
3:06pm 13 17 mph - 67f 63f
3:00pm  -  mph - 67f -
2:54pm  -  mph - 66f -
2:48pm  -  mph - 67f 63f
2:42pm  -  mph - 67f 63f
2:36pm  -  mph - 67f 63f
2:30pm 14 17 mph 1020.3mb 67f 64f
2:24pm 14 20 mph 1020.3mb 67f 64f
2:18pm 13 16 mph 1020.3mb 68f 64f
2:12pm 14 17 mph 1020.4mb 67f 64f
2:06pm 15 17 mph 1020.3mb 68f 64f
2:00pm 14 16 mph 1020.3mb 68f 64f
1:54pm 14 18 mph 1020.3mb 67f 64f
1:48pm 13 16 mph 1020.2mb 67f 65f
1:42pm 11 18 mph 1020.3mb 67f 65f
1:36pm 16 18 mph 1020.2mb 68f 65f
1:30pm 13 17 mph 1020.2mb 67f 65f
1:24pm 13 18 mph 1020.3mb 67f 65f
1:18pm 9 15 mph 1020.3mb 67f 65f
1:12pm 11 14 mph 1020.3mb 68f 65f
1:06pm 14 17 mph 1020.4mb 67f 65f
1:00pm 9 13 mph 1020.3mb 67f 66f
12:54pm 11 16 mph 1020.4mb 68f 65f
12:48pm 5 14 mph 1020.4mb 68f 66f
12:42pm 8 14 mph 1020.4mb 68f 65f
12:36pm 9 11 mph 1020.4mb 68f 65f
12:30pm 10 14 mph 1020.4mb 68f 65f
12:24pm 11 13 mph 1020.3mb 68f 65f
12:18pm 9 13 mph 1020.3mb 68f 65f
12:12pm 9 13 mph 1020.3mb 68f 65f
12:06pm 8 11 mph 1020.4mb 68f 64f
12:00pm 9 13 mph 1020.4mb 68f 65f
11:54am 6 9 mph 1020.4mb 68f 64f
11:48am 5 9 mph 1020.4mb 68f 64f
11:42am 8 11 mph 1020.5mb 67f 64f
11:36am 7 9 mph 1020.5mb 67f 63f
11:30am 5 9 mph 1020.5mb 67f 63f
11:24am 7 10 mph 1020.5mb 67f 63f
11:18am 6 8 mph 1020.5mb 67f 63f
11:12am 6 14 mph 1020.5mb 67f 63f
11:00am 6 7 mph 1020.5mb 67f 63f
10:54am 6 10 mph 1020.5mb 66f 63f
10:48am 9 11 mph 1020.4mb 66f 62f
10:42am 8 10 mph 1020.4mb 66f 62f
10:36am 6 8 mph 1020.3mb 66f 62f
10:30am 7 10 mph 1020.2mb 66f 62f
10:24am 9 11 mph 1020.2mb 66f 62f
10:18am 6 8 mph 1020.3mb 66f 62f
10:12am 1 5 mph 1020.3mb 66f 62f
10:06am 5 7 mph 1020.3mb 66f 62f
10:00am 6 7 mph 1020.3mb 65f 62f
9:54am 3 8 mph 1020.2mb 66f 61f
9:48am 6 9 mph 1020.3mb 66f 62f
9:42am 7 8 mph 1020.3mb 66f 61f
9:36am 5 9 mph 1020.3mb 66f 61f
9:30am 9 10 mph 1020.3mb 65f 61f
9:24am 6 7 mph 1020.2mb 66f 61f
9:18am 6 9 mph 1020.3mb 65f 61f
9:12am 6 8 mph 1020.3mb 65f 61f
9:06am 7 8 mph 1020.2mb 65f 61f
9:00am 8 11 mph 1020.2mb 65f 61f
8:54am 8 10 mph 1020.1mb 65f 61f
8:48am 8 11 mph 1020.1mb 65f 61f
8:42am 6 9 mph 1020.1mb 65f 61f
8:36am 8 9 mph 1020mb 65f 60f
8:30am 7 8 mph 1020mb 65f 60f
8:24am 6 8 mph 1020mb 65f 60f
8:18am 5 7 mph 1020mb 65f 60f
8:12am 6 9 mph 1020.1mb 65f 60f
8:06am 6 8 mph 1020.1mb 65f 60f
8:00am 6 7 mph 1020.1mb 65f 60f
7:54am 6 7 mph 1020mb 65f 60f
7:48am 6 8 mph 1020mb 65f 60f
7:42am 6 8 mph 1019.9mb 65f 60f
7:36am 5 7 mph 1019.9mb 64f 59f
7:30am 5 6 mph 1019.9mb 64f 59f
7:24am 2 7 mph 1019.8mb 65f 59f
7:18am 3 5 mph 1019.7mb 65f 59f
7:12am 5 6 mph 1019.7mb 65f 59f
7:06am 5 7 mph 1019.7mb 64f 59f
7:00am 5 7 mph 1019.7mb 64f 59f
6:54am 5 9 mph 1019.6mb 65f 59f
6:48am 6 8 mph 1019.6mb 64f 59f
6:42am 7 9 mph 1019.5mb 64f 59f
6:36am 5 8 mph 1019.5mb 63f 59f
6:30am 7 8 mph 1019.5mb 63f 59f
6:24am 5 7 mph 1019.6mb 63f 59f
6:18am 6 8 mph 1019.5mb 63f 59f
6:12am 7 9 mph 1019.4mb 63f 59f
6:06am 8 10 mph 1019.4mb 63f 59f
6:00am 7 10 mph 1019.3mb 63f 59f
5:54am 7 11 mph 1019.3mb 62f 59f
5:48am 7 9 mph 1019.2mb 62f 59f
5:42am 7 13 mph 1019.2mb 62f 59f
5:36am 8 10 mph 1019.2mb 62f 59f
5:30am 8 11 mph 1019.1mb 62f 59f
5:24am 6 10 mph 1019.1mb 62f 59f
5:18am 8 10 mph 1019mb 62f 59f
5:12am 8 10 mph 1019mb 62f 59f
5:06am 8 14 mph 1019mb 62f 59f
5:00am 7 9 mph 1019mb 62f 59f
4:54am 8 11 mph 1018.9mb 63f 59f
4:48am 9 11 mph 1018.9mb 63f 58f
4:42am 6 9 mph 1018.8mb 63f 59f
4:36am 7 11 mph 1018.8mb 64f 59f
4:30am 6 10 mph 1018.8mb 64f 59f
4:24am 7 9 mph 1018.8mb 64f 59f
4:18am 7 9 mph 1018.8mb 64f 59f
4:12am 7 8 mph 1018.7mb 65f 58f
4:06am 6 8 mph 1018.7mb 64f 59f
4:00am 6 7 mph 1018.7mb 65f 59f
3:54am 6 11 mph 1018.7mb 65f 59f
3:48am 6 10 mph 1018.7mb 65f 59f
3:42am 7 13 mph 1018.7mb 65f 59f
3:36am 7 13 mph 1018.7mb 65f 59f
3:30am 8 11 mph 1018.6mb 65f 59f
3:24am 7 11 mph 1018.6mb 66f 59f
3:18am 9 14 mph 1018.6mb 66f 59f
3:12am 6 9 mph 1018.5mb 66f 59f
3:06am 8 9 mph 1018.5mb 66f 59f
3:00am 7 8 mph 1018.5mb 66f 59f
2:54am 5 8 mph 1018.5mb 66f 59f
2:48am 6 7 mph 1018.4mb 67f 59f
2:42am 7 9 mph 1018.4mb 67f 59f
2:36am 6 9 mph 1018.4mb 67f 59f
2:30am 8 14 mph 1018.4mb 67f 59f
2:24am 9 13 mph 1018.4mb 67f 59f
2:18am 9 13 mph 1018.4mb 67f 59f
2:12am 9 13 mph 1018.4mb 67f 59f
2:06am 9 14 mph 1018.4mb 68f 60f
2:00am 10 15 mph 1018.4mb 68f 59f
1:54am 11 14 mph 1018.4mb 68f 60f
1:48am 11 15 mph 1018.3mb 68f 60f
1:42am 9 11 mph 1018.3mb 67f 60f
1:36am 9 11 mph 1018.4mb 68f 60f
1:30am 8 13 mph 1018.4mb 68f 60f
1:24am 6 13 mph 1018.4mb 68f 60f
1:18am 10 14 mph 1018.5mb 67f 60f
1:12am 11 15 mph 1018.5mb 67f 60f
1:06am 9 13 mph 1018.5mb 68f 60f
1:00am 9 15 mph 1018.5mb 68f 60f
12:54am 9 14 mph 1018.5mb 68f 60f
12:48am 7 11 mph 1018.5mb 68f 60f
12:42am 8 9 mph 1018.5mb 68f 60f
12:36am 7 8 mph 1018.5mb 69f 60f
12:30am 6 8 mph 1018.4mb 69f 60f
12:24am 6 7 mph 1018.3mb 69f 60f
12:18am 3 6 mph 1018.3mb 69f 60f
12:12am 5 6 mph 1018.2mb 69f 60f
12:06am 3 5 mph 1018.2mb 69f 60f
12:00am 3 5 mph 1018.2mb 69f 59f
Sun 07/24 11:54pm 5 6 mph 1018.2mb 69f 60f
11:48pm 3 6 mph 1018.2mb 69f 60f
11:42pm 3 5 mph 1018.1mb 69f 60f
11:36pm 3 5 mph 1018mb 69f 60f
11:30pm 3 5 mph 1018mb 69f 60f
11:24pm 1 2 mph 1017.9mb 69f 60f
11:18pm 2 3 mph 1017.9mb 69f 60f
11:12pm 2 3 mph 1018mb 69f 60f
11:06pm 3 6 mph 1018.1mb 69f 60f
11:00pm 5 6 mph 1018.1mb 69f 60f
10:54pm 3 7 mph 1018.1mb 69f 61f
10:48pm 5 6 mph 1018.1mb - -
10:42pm 3 5 mph 1018.2mb - -
10:36pm 5 6 mph 1018.2mb - -
10:30pm 2 7 mph 1018.2mb 69f 61f
10:24pm 6 8 mph 1018.2mb 69f 61f
10:18pm 7 9 mph 1018.2mb 69f 61f
10:12pm 8 11 mph 1018.3mb 69f 61f
10:06pm 7 13 mph 1018.3mb 70f 61f
10:00pm 8 10 mph 1018.2mb 69f 61f
9:54pm 8 10 mph 1018.2mb 69f 61f
9:48pm 9 13 mph 1018.1mb 69f 61f
9:42pm 6 9 mph 1018.1mb 69f 61f
9:36pm 7 14 mph 1018.1mb 69f 61f
9:30pm 7 13 mph 1018mb 69f 61f
9:24pm 10 14 mph 1017.9mb 68f 61f
9:18pm 10 11 mph 1017.8mb 68f 61f
9:12pm 8 9 mph 1017.8mb 68f 61f
9:06pm 7 11 mph 1017.8mb 68f 62f
9:00pm 7 13 mph 1017.8mb 68f 62f
8:54pm 8 11 mph 1017.8mb 68f 62f
8:48pm 9 11 mph 1017.8mb 68f 62f
8:42pm 11 14 mph 1017.7mb 67f 62f
8:36pm 10 14 mph 1017.7mb 67f 62f
8:30pm 8 10 mph 1017.7mb 67f 63f
8:24pm 7 10 mph 1017.8mb 67f 63f
8:18pm 6 17 mph - 67f 63f
8:12pm 14 17 mph - 67f 63f
8:06pm 15 18 mph - 67f 63f
8:00pm  -  mph 1017.8mb 67f -
7:54pm  -  mph 1017.7mb 67f -
7:48pm 13 18 mph 1017.6mb 67f -
7:42pm 10 14 mph 1017.6mb 67f -
7:36pm 14 18 mph 1017.7mb 67f -
7:30pm 14 21 mph - 67f -
7:24pm 16 21 mph - 67f -
7:18pm 10 17 mph 1017.7mb 67f 64f
7:12pm 14 17 mph 1017.7mb 67f 64f
7:06pm 15 21 mph 1017.6mb 67f 64f
7:00pm  -  mph - 67f 64f
6:54pm  -  mph - 67f 64f
6:48pm 17 21 mph - 65f -
6:42pm 11 18 mph - 64f -
6:36pm 15 18 mph - 63f -
6:30pm 16 22 mph 1017.8mb 64f -
6:24pm 20 23 mph 1017.8mb 63f -
6:18pm 21 24 mph 1017.8mb 63f -
6:12pm 20 25 mph 1017.9mb 64f -
6:06pm 18 22 mph 1017.9mb 62f -
6:00pm 20 23 mph - 62f 65f
5:54pm 16 22 mph - 61f 65f
5:48pm 16 22 mph 1018mb 61f -
5:42pm 16 20 mph 1018.1mb 61f -
5:36pm 15 22 mph 1018.1mb 61f -
5:30pm 15 20 mph - - -
5:24pm 16 20 mph - - -
5:18pm 14 18 mph - 61f 66f
5:12pm 15 21 mph - 62f 66f
5:06pm 18 23 mph - 62f 66f
5:00pm  -  mph - 63f 66f
4:54pm  -  mph - 64f 66f
4:48pm 16 21 mph - - -
4:42pm 15 21 mph - - -
4:36pm 14 18 mph - - -
4:30pm 16 21 mph - 65f -
4:24pm 18 22 mph - 65f -
4:18pm 17 21 mph - 65f -
4:12pm 16 20 mph - 65f -
4:06pm 14 21 mph - 65f -
4:00pm  -  mph - 65f 67f
3:54pm  -  mph - 65f 67f
3:48pm 18 23 mph - - -
3:42pm 14 18 mph - - -
3:36pm 17 20 mph - - -
3:30pm 16 21 mph - 66f -
3:24pm 15 18 mph - 66f -
3:18pm 15 20 mph 1018.7mb 66f 68f
3:12pm 15 21 mph 1018.6mb 66f 68f
3:06pm 18 22 mph 1018.7mb 66f 67f
3:00pm  -  mph - 66f 67f
2:54pm  -  mph - 66f 67f
2:48pm 20 22 mph - 66f 67f
2:42pm 18 23 mph - 66f 67f
2:36pm 18 23 mph - 66f 67f
2:30pm 20 24 mph 1019.1mb 66f 66f
2:24pm 22 24 mph 1019.1mb 67f 66f
2:18pm 22 26 mph 1019.1mb 67f 66f
2:12pm 18 24 mph 1019.1mb 67f 67f
2:06pm 21 23 mph 1019.1mb 67f 67f
2:00pm 20 22 mph 1019.1mb 67f 67f
1:54pm 17 21 mph 1019.1mb 66f 68f
1:48pm 17 22 mph 1019.2mb 67f 68f
1:42pm 11 22 mph 1019.3mb 68f 69f
1:36pm 14 20 mph 1019.3mb 68f 69f
1:30pm 13 18 mph 1019.3mb 68f 69f
1:24pm 13 16 mph 1019.4mb 68f 69f
1:18pm 14 20 mph 1019.4mb 68f 69f
1:12pm 14 21 mph 1019.4mb 67f 69f
1:06pm 15 18 mph 1019.4mb 67f 69f
1:00pm 13 22 mph 1019.4mb 68f 69f
12:54pm 16 22 mph 1019.4mb 67f 69f
12:48pm 17 20 mph 1019.5mb 67f 69f
12:42pm 14 22 mph 1019.6mb 66f 69f
12:36pm 15 17 mph 1019.5mb 66f 69f
12:30pm 6 13 mph 1019.6mb 66f 70f
12:24pm 8 11 mph 1019.5mb 66f 70f
12:18pm 2 5 mph 1019.7mb 66f -
12:12pm 2 3 mph 1019.7mb 66f 70f
12:06pm 3 5 mph 1019.7mb 66f 69f
12:00pm 3 6 mph 1019.8mb 66f 68f
11:54am 2 6 mph 1019.9mb 66f 69f
11:48am 5 6 mph 1019.9mb 66f 68f
11:42am 5 7 mph 1020mb 66f 68f
11:36am 3 7 mph 1020mb 66f 68f
11:30am 6 9 mph 1020.1mb 67f 68f
11:24am 6 7 mph 1020.1mb 67f 67f
11:18am 5 6 mph 1020.2mb 67f 67f
11:12am 6 7 mph 1020.2mb 66f 67f
11:06am 5 7 mph 1020.2mb 66f 67f
11:00am 3 6 mph 1020.2mb 66f 66f
10:54am 5
mph
1020.2mb 66f 64f
10:48am 5 6 mph 1020.3mb 66f 64f
10:42am 5 6 mph 1020.4mb 66f 64f
10:36am 5 6 mph 1020.4mb 66f 64f
10:30am 3 5 mph 1020.5mb 66f 64f
10:24am 3 5 mph 1020.5mb 66f 63f
10:18am 2 3 mph 1020.6mb 66f 62f
10:12am 3 5 mph 1020.6mb 66f 61f
10:06am 3 5 mph 1020.7mb 66f 60f
10:00am 3 5 mph 1020.7mb 66f 60f
9:54am 3 5 mph 1020.8mb 65f 60f
9:48am 3 5 mph 1020.9mb 65f 59f
9:42am 3 5 mph 1020.9mb 65f 59f
9:36am 3 5 mph 1021mb 65f 59f
9:30am 5
mph
1021.1mb 65f 58f
9:24am 3 5 mph 1021.1mb 65f 58f
9:18am 3 5 mph 1021.1mb 65f 59f
9:12am 3
mph
1021.1mb 65f 58f
9:06am 3
mph
1021.1mb 65f 58f
9:00am 2 3 mph 1021.1mb 65f 58f
8:54am 2 5 mph 1021.1mb 65f 58f
8:48am 5
mph
1021.1mb 65f 57f
8:42am 3 5 mph 1021.1mb 65f 57f
8:36am 3 5 mph 1021.1mb 65f 56f
8:30am 6
mph
1021mb 65f 56f
8:24am 6 7 mph 1021mb 64f 56f
8:18am 6 7 mph 1021mb 64f 56f
8:12am 6 7 mph 1021mb 64f 56f
8:06am 3 6 mph 1021mb 64f 56f
8:00am 3 5 mph 1021.1mb 64f 55f
7:54am 5 7 mph 1021.1mb 64f 55f
7:48am 3 7 mph 1021.1mb 64f 55f
7:42am 5 7 mph 1021.1mb 64f 55f
7:36am 5 7 mph 1021.1mb 64f 55f
7:30am 3 6 mph 1021.1mb 64f 55f
7:24am 5 6 mph 1021.1mb 64f 55f
7:18am 5 6 mph 1021.1mb 64f 55f
7:12am 6 7 mph 1021.2mb 64f 55f
7:06am 6 7 mph 1021.1mb 64f 55f
7:00am 6 7 mph 1021.1mb 64f 55f
6:54am 5 6 mph 1021.1mb 64f 55f
6:48am 5 7 mph 1021mb 64f 55f
6:42am 6 7 mph 1021mb 64f 55f
6:36am 6 7 mph 1021mb 64f 56f
6:30am 6 7 mph 1021mb 64f 56f
6:24am 6
mph
1021.1mb 64f 56f
6:18am 5 7 mph 1021.1mb 64f 56f
6:12am 5 6 mph 1021.1mb 64f 56f
6:06am 6 7 mph 1021.1mb 64f 56f
6:00am 5 8 mph 1021.1mb 64f 56f
5:54am 6 7 mph 1021mb 64f 57f
5:48am 6 7 mph 1021.1mb 64f 57f
5:42am 6
mph
1021.1mb 64f 57f
5:36am 6
mph
1021.1mb 64f 57f
5:30am 5 6 mph 1021mb 64f 57f
5:24am 5 6 mph 1021mb 64f 57f
5:18am 3 6 mph 1021mb 64f 57f
5:12am 5 6 mph 1021mb 64f 57f
5:06am 6
mph
1021.1mb 64f 58f
5:00am 6 7 mph 1021.1mb 64f 58f
4:54am 6 8 mph 1021.1mb 64f 58f
4:48am 7 8 mph 1021.2mb 64f 58f
4:42am 6 8 mph 1021.2mb 64f 58f
4:36am 6 7 mph 1021.2mb 63f 58f
4:30am 3 6 mph 1021.2mb 64f 58f
4:24am 5 6 mph 1021.2mb 64f 58f
4:18am 6
mph
1021.3mb 64f 58f
4:12am 5 6 mph 1021.3mb 64f 58f
4:06am 6 7 mph 1021.3mb 64f 58f
4:00am 5 6 mph 1021.3mb 64f 58f
3:54am 5 7 mph 1021.3mb 64f 58f
3:48am 3 6 mph 1021.4mb 64f 58f
3:42am 5 7 mph 1021.4mb 64f 58f
3:36am 5 7 mph 1021.5mb 64f 59f
3:30am 5 6 mph 1021.5mb 64f 59f
3:24am 3 6 mph 1021.6mb 64f 59f
3:18am 5 6 mph 1021.7mb 65f 59f
3:12am 2 3 mph 1021.7mb 65f 59f
3:06am 2 5 mph 1021.7mb 65f 59f
3:00am 3 5 mph 1021.8mb 65f 59f
2:54am 3 6 mph 1021.9mb 65f 59f
2:48am 5 6 mph 1021.9mb 65f 59f
2:42am 3 5 mph 1021.9mb 65f 59f
2:36am 2 5 mph 1021.9mb 65f 59f
2:30am 2 5 mph 1022mb 66f 59f
2:24am 3 6 mph 1022.1mb 66f 59f
2:18am 5 6 mph 1022.1mb 66f 59f
2:12am 3 5 mph 1022.2mb 65f 60f
2:06am 3 6 mph 1022.2mb 66f 59f
2:00am 2 3 mph 1022.2mb 66f 60f
1:54am 3 5 mph 1022.2mb 66f 60f
1:48am 1 6 mph 1022.2mb 66f 60f
1:42am 2 5 mph 1022.3mb 66f 60f
1:36am 3 6 mph 1022.3mb 66f 60f
1:30am 3 5 mph 1022.3mb 66f 60f
1:24am 5 8 mph 1022.3mb 66f 60f
1:18am 5 8 mph 1022.4mb 66f 60f
1:12am 6
mph
1022.5mb 66f 60f
1:06am 5 6 mph 1022.5mb 67f 60f
1:00am 6 7 mph 1022.6mb 67f 60f
12:54am 5 6 mph 1022.6mb 67f 60f
12:48am 6 7 mph 1022.7mb 67f 60f
12:42am 5 6 mph 1022.6mb 67f 60f
12:36am 3 6 mph 1022.7mb 67f 60f
12:30am 5 7 mph 1022.6mb 67f 59f
12:24am 3 6 mph 1022.6mb 67f 60f
12:18am 3 6 mph 1022.6mb 67f 59f
12:12am 6 8 mph 1022.7mb 67f 60f
12:06am 5 6 mph 1022.7mb 67f 59f
12:00am 3 6 mph 1022.8mb 67f 59f
Sat 07/23 11:54pm 5 6 mph 1022.8mb 67f 60f
11:48pm 5 6 mph 1022.9mb 67f 60f
11:42pm 2 5 mph 1023mb 67f 60f
11:36pm 2 3 mph 1023.1mb 68f 60f
11:30pm 2 3 mph 1023.2mb 68f 60f
11:24pm 3 5 mph 1023.2mb 68f 60f
11:18pm 2 5 mph 1023.3mb 68f 60f
11:12pm 2 5 mph 1023.3mb 68f 60f
11:06pm 3 6 mph 1023.4mb 68f 60f
11:00pm 2 3 mph 1023.5mb 68f 60f
10:54pm 1 2 mph 1023.6mb 68f 60f
10:48pm 1 3 mph 1023.6mb 68f 60f
10:42pm 2 5 mph 1023.7mb 68f 60f
10:36pm 2 5 mph 1023.8mb 68f 60f
10:30pm 3 7 mph 1023.8mb 67f 60f
10:24pm 6 8 mph 1023.8mb 67f 60f
10:18pm 3 6 mph 1023.9mb 68f 60f
10:12pm 5 6 mph 1023.9mb 68f 60f
10:06pm 3 7 mph 1024mb 68f 60f
10:00pm 5 7 mph 1023.9mb 68f 60f
9:54pm 7 8 mph 1023.9mb 68f 60f
9:48pm 8 10 mph 1023.8mb 68f 60f
9:42pm 8 11 mph 1023.8mb 67f 61f
9:36pm 9 13 mph 1023.8mb 68f 61f
9:30pm 10 14 mph 1023.8mb 68f 61f
9:24pm 9 11 mph 1023.8mb 68f 61f
9:12pm 7 9 mph 1023.8mb 67f 61f
9:06pm 8 10 mph 1023.8mb 68f 61f
9:00pm 8 11 mph 1023.8mb 68f 61f
8:54pm 7 9 mph 1023.9mb 68f 61f
8:48pm 8 10 mph 1023.9mb 67f 61f
8:42pm 8 10 mph 1023.9mb 67f 61f
8:36pm 9 10 mph 1024mb 67f 62f
8:30pm 9 14 mph 1024mb 67f 62f
8:24pm 13 15 mph 1024mb 67f 62f
8:18pm 10 15 mph - 67f 62f
8:12pm 10 18 mph - 67f 62f
8:06pm 13 14 mph - 67f 62f
8:00pm  -  mph - 67f 63f
7:54pm  -  mph - 67f 63f
7:48pm 10 15 mph 1024.2mb - -
7:42pm 14 18 mph 1024.2mb - -
7:36pm 16 18 mph 1024.2mb - -
7:30pm 14 17 mph 1024.3mb - -
7:24pm 13 16 mph 1024.3mb - -
7:18pm  -  mph 1024.3mb 66f 63f
7:12pm  -  mph 1024.2mb 66f 63f
7:06pm  -  mph 1024.2mb 66f 63f
7:00pm  -  mph - 66f 63f
6:54pm  -  mph - 66f 64f
6:48pm  -  mph - 66f -
6:42pm  -  mph - 66f -
6:36pm  -  mph - 67f -
6:30pm 16 20 mph - - -
6:24pm 13 18 mph - - -
6:18pm 15 18 mph - 65f -
6:12pm 14 18 mph - 65f -
6:06pm 14 16 mph - 65f -
6:00pm  -  mph - 65f 64f
5:54pm  -  mph - 64f 64f
5:48pm 16 20 mph 1024.8mb - -
5:42pm 14 20 mph 1024.9mb - -
5:36pm 16 18 mph 1024.8mb - -
5:30pm 15 21 mph - - -
5:24pm 13 20 mph - - -
5:18pm 15 18 mph 1025mb 63f -
5:12pm 14 20 mph 1025mb 63f -
5:06pm 15 20 mph 1025mb 63f -
5:00pm  -  mph - 63f -
4:54pm  -  mph - 63f -
4:48pm 14 17 mph - - -
4:42pm 16 20 mph - - -
4:36pm 16 21 mph - - -
4:30pm 15 21 mph - - -
4:24pm 16 22 mph - - -
4:18pm 15 20 mph 1025.3mb 63f 64f
4:12pm 17 21 mph 1025.4mb 63f 64f
4:06pm 15 22 mph 1025.5mb 64f 64f
4:00pm  -  mph - 64f 64f
3:54pm  -  mph - 64f 64f
3:48pm  -  mph - 65f 64f
3:42pm  -  mph - 65f 64f
3:36pm  -  mph - 65f 64f
3:30pm 18 21 mph - - -
3:24pm 17 24 mph - - -
3:18pm  -  mph - 66f -
3:12pm  -  mph - 65f -
3:06pm  -  mph - 66f -
3:00pm  -  mph - 65f -
2:54pm  -  mph - 65f -
2:48pm 14 18 mph 1025.6mb - 64f
2:42pm 13 21 mph 1025.6mb - 64f
2:36pm 13 17 mph 1025.6mb - 64f
2:30pm 13 17 mph 1025.7mb 66f 64f
2:24pm 13 17 mph 1025.7mb 66f 64f
2:18pm 15 16 mph 1025.7mb 66f 64f
2:12pm 14 17 mph 1025.7mb 66f 64f
2:06pm 15 17 mph 1025.6mb 66f 64f
2:00pm 15 18 mph 1025.6mb 66f 64f
1:54pm 15 20 mph 1025.5mb 66f 64f
1:48pm 16 18 mph 1025.6mb 66f 64f
1:42pm 14 18 mph 1025.7mb 66f 64f
1:36pm 14 16 mph 1025.8mb 66f 64f
1:30pm 14 17 mph 1025.7mb 67f 63f
1:24pm 15 17 mph 1025.7mb 67f 64f
1:18pm 17 20 mph 1025.7mb 66f 64f
1:12pm 16 17 mph 1025.7mb 66f 64f
1:06pm 14 17 mph 1025.8mb 66f 64f
1:00pm 14 17 mph 1025.8mb 66f 64f
12:54pm 11 14 mph 1025.8mb 67f 64f
12:48pm 13 16 mph 1025.8mb 67f 64f
12:42pm 14 16 mph 1025.8mb 67f 64f
12:36pm 10 16 mph 1025.7mb 67f 64f
12:30pm 10 15 mph 1025.7mb 67f 64f
12:24pm 11 14 mph 1025.7mb 67f 64f
12:18pm 13 15 mph 1025.8mb 67f 64f
12:12pm 10 16 mph 1025.8mb 67f 64f
12:06pm 11 14 mph 1025.9mb 67f 64f
12:00pm 10 17 mph 1025.9mb 67f 64f
11:54am 11 15 mph 1025.8mb 67f 64f
11:48am 11 15 mph 1025.8mb 67f 64f
11:42am 11 16 mph 1025.8mb 67f 64f
11:36am 10 15 mph 1025.9mb 67f 64f
11:30am 9 15 mph 1025.9mb 67f 64f
11:24am 13 15 mph 1025.9mb 67f 63f
11:18am 13 16 mph 1026mb 67f 63f
11:12am 13 18 mph 1026mb 67f 63f
11:06am 10 15 mph 1026mb 67f 63f
11:00am 14 16 mph 1026mb 67f 63f
10:54am 14 15 mph 1025.9mb 67f 63f
10:48am 10 14 mph 1025.9mb 67f 63f
10:42am 10 14 mph 1025.9mb 67f 63f
10:36am 7 10 mph 1025.9mb 67f 63f
10:30am 10 14 mph 1025.9mb 67f 63f
10:24am 10 14 mph 1025.9mb 67f 63f
10:18am 9 14 mph 1025.9mb 67f 63f
10:12am 11 15 mph 1025.9mb 67f 62f
10:06am 13 15 mph 1025.9mb 67f 63f
10:00am 9 15 mph 1025.9mb 67f 63f
9:54am 14 17 mph 1025.8mb 67f 63f
9:48am 13 15 mph 1025.9mb 67f 63f
9:42am 10 14 mph 1025.9mb 67f 62f
9:36am 10 13 mph 1025.8mb 67f 62f
9:30am 9 14 mph 1025.9mb 67f 62f
9:24am 11 17 mph 1025.9mb 67f 62f
9:18am 11 15 mph 1025.9mb 67f 62f
9:12am 11 16 mph 1025.9mb 66f 62f
9:06am 13 18 mph 1025.9mb 66f 62f
9:00am 9 13 mph 1025.8mb 66f 61f
8:54am 9 14 mph 1025.8mb 66f 61f
8:48am 13 14 mph 1025.8mb 65f 61f
8:42am 9 10 mph 1025.8mb 65f 61f
8:36am 9 14 mph 1025.7mb 65f 60f
8:30am 11 13 mph 1025.7mb 65f 60f
8:24am 9 11 mph 1025.7mb 65f 60f
8:18am 9 11 mph 1025.7mb 65f 60f
8:12am 9 11 mph 1025.7mb 65f 60f
8:06am 7 9 mph 1025.8mb 65f 59f
8:00am 8 10 mph 1025.7mb 65f 60f
7:54am 8 10 mph 1025.8mb 65f 59f
7:48am 9 10 mph 1025.8mb 65f 59f
7:42am 11 15 mph 1025.7mb 65f 59f
7:36am 10 14 mph 1025.7mb 65f 59f
7:30am 10 14 mph 1025.7mb 65f 59f
7:24am 11 14 mph 1025.7mb 65f 59f
7:18am 11 14 mph 1025.6mb 65f 59f
7:12am 10 14 mph 1025.6mb 65f 58f
7:06am 11 15 mph 1025.6mb 65f 58f
7:00am 11
mph
1025.6mb 65f 59f
6:54am 9 13 mph 1025.6mb 65f 58f
6:48am 11 14 mph 1025.7mb 65f 59f
6:42am 10 13 mph 1025.7mb 65f 59f
6:36am 7 8 mph 1025.7mb 65f 59f
6:30am 7 8 mph 1025.5mb 65f 59f
6:24am 6
mph
1025.5mb 65f 59f
6:18am 5
mph
1025.4mb 65f 59f
6:12am 5 6 mph 1025.4mb 65f 59f
6:06am 3 5 mph 1025.4mb 64f 59f